Location: Home
(42.5358°N, 72.7383°W)
Time: 00:34:56
(UTC-05:00)

Vanguard 1 - Pass Details

Date: 02 December 2021
Orbit: 652 x 3830 km, 34.2° (Epoch: 21 January)

Event Time Altitude Azimuth Distance (km) Brightness Sun altitude
Rises 03:56:53 0° 272° (W) 7,974 - -33.5°
Reaches altitude 10° 04:02:35 10° 269° (W) 6,877 - -32.4°
Exits shadow 04:15:14 39° 254° (WSW) 4,407 12.8 -30.1°
Maximum altitude 04:23:53 59° 198° (SSW) 3,217 12.4 -28.5°
Drops below altitude 10° 04:36:49 10° 123° (ESE) 4,412 14.2 -26.1°
Sets 04:39:36 0° 119° (ESE) 5,075 14.8 -25.6°
